Location: Karcze
(52.0945°N, 22.4786°E)
Time: 01:41:00
(UTC+00:00)

Cosmos 1908 Rocket - Pass Details

Date: 14 July 2020
Orbit: 605 x 633 km, 82.5° (Epoch: 06 August)

Event Time Altitude Azimuth Distance (km) Brightness Sun altitude
Exits shadow 01:28:44 - 180° (S) 2,722 6.4 -7.2°
Reaches altitude 10° 01:30:29 10° 178° (S) 2,014 5.8 -7.0°
Maximum altitude 01:34:55 66° 97° (E) 693 4.0 -6.6°
Drops below altitude 10° 01:39:22 10° 16° (NNE) 2,023 7.4 -6.1°
Sets 01:41:37 0° 13° (NNE) 2,932 8.2 -5.9°
